Weather History for Watsonville, CA

Change the Weather History Date:

Saturday, February 11, 2012

  Actual Average Record
Temperature  
Mean Temperature 56 °F 52 °F  
Max Temperature 63 °F 61 °F 74 °F (2011)
Min Temperature 48 °F 42 °F 32 °F (1966)
Degree Days  
Heating Degree Days 9    
Month to date heating degree days 94  
Since 1 July heating degree days 1582  
Cooling Degree Days 0    
Month to date cooling degree days 0  
Year to date cooling degree days 0  
Growing Degree Days 6 (Base 50)    
Moisture  
Dew Point 48 °F    
Average Humidity 75    
Maximum Humidity 86    
Minimum Humidity 64    
Precipitation  
Precipitation T in - 1.38 in (2000)
Month to date precipitation 0.19  
Year to date precipitation 2.88  
Since 1 July precipitation 7.17  
Sea Level Pressure  
Sea Level Pressure 30.07 in    
Wind  
Wind Speed 2 mph (WSW)    
Max Wind Speed 10 mph    
Max Gust Speed 22 mph    
Visibility 10 miles    
Events Rain    
T = Trace of Precipitation, MM = Missing Value Source: NWS Daily Summary

Daily Weather History Graph

Daily Weather History Graph

Search for Another Location

Airport:

Trip Planner

Search our weather history database for the weather conditions in past years. The results will help you decide how hot, cold, wet, or windy it might be!

Date:

Astronomy

Feb. 11, 2012 Rise Set
Actual Time 7:00 AM PST 5:42 PM PST
Civil Twilight 6:33 AM PST 6:09 PM PST
Nautical Twilight 6:03 AM PST 6:40 PM PST
Astronomical Twilight 5:32 AM PST 7:10 PM PST
Moon 10:27 PM PST (2/11) 8:54 AM PST (2/11)
Length of Visible Light 11h 35m
Length of Day
10h 42m
Waning Gibbous, 81% of the Moon is Illuminated
Feb 11
Waning Gibbous
Feb 14
Last Quarter
Feb 21
New
Feb 29
First Quarter
Mar 8
Full

Hourly Weather History & Observations

Time (PST) Temp. Dew Point Humidity Pressure Visibility Wind Dir Wind Speed Gust Speed Precip Events Conditions
12:10 AM 53.6 °F 48.2 °F 82% 30.11 in 10.0 mi SW 3.5 mph - N/A   Mostly Cloudy
12:32 AM 53.6 °F 48.2 °F 82% 30.11 in 10.0 mi Variable 5.8 mph - N/A   Mostly Cloudy
12:49 AM 53.6 °F 48.2 °F 82% 30.10 in 10.0 mi WSW 8.1 mph - N/A   Overcast
12:53 AM 54.0 °F 48.9 °F 83% 30.10 in 10.0 mi WSW 9.2 mph - N/A   Overcast
1:16 AM 53.6 °F 48.2 °F 82% 30.10 in 10.0 mi WSW 9.2 mph - N/A   Overcast
1:53 AM 54.0 °F 48.0 °F 80% 30.09 in 10.0 mi Calm Calm - 0.00 in   Overcast
2:34 AM 51.8 °F 46.4 °F 82% 30.09 in 10.0 mi SW 4.6 mph - N/A   Mostly Cloudy
2:53 AM 53.1 °F 48.0 °F 83% 30.09 in 10.0 mi Calm Calm - N/A   Overcast
3:22 AM 53.6 °F 48.2 °F 82% 30.09 in 10.0 mi SW 5.8 mph - N/A   Overcast
3:53 AM 53.1 °F 48.0 °F 83% 30.08 in 10.0 mi Calm Calm - N/A   Mostly Cloudy
4:01 AM 53.6 °F 48.2 °F 82% 30.08 in 10.0 mi Calm Calm - N/A   Overcast
4:53 AM 52.0 °F 46.9 °F 83% 30.07 in 10.0 mi Calm Calm - N/A   Clear
5:53 AM 51.1 °F 46.9 °F 86% 30.07 in 10.0 mi NNW 3.5 mph - N/A   Partly Cloudy
6:53 AM 50.0 °F 46.0 °F 86% 30.07 in 10.0 mi Calm Calm - N/A   Clear
7:53 AM 51.1 °F 46.0 °F 83% 30.09 in 10.0 mi Calm Calm - N/A   Scattered Clouds
8:53 AM 53.1 °F 48.0 °F 83% 30.10 in 10.0 mi Calm Calm - N/A   Overcast
9:53 AM 55.0 °F 48.9 °F 80% 30.10 in 10.0 mi Calm Calm - N/A   Overcast
10:02 AM 55.4 °F 48.2 °F 77% 30.10 in 10.0 mi Variable 3.5 mph - N/A   Overcast
10:53 AM 57.9 °F 48.0 °F 70% 30.10 in 10.0 mi Variable 3.5 mph - N/A   Overcast
11:35 AM 57.2 °F 48.2 °F 72% 30.09 in 10.0 mi WSW 6.9 mph - N/A   Overcast
11:53 AM 57.0 °F 48.0 °F 72% 30.08 in 10.0 mi SW 9.2 mph - N/A   Overcast
12:53 PM 60.1 °F 48.0 °F 64% 30.06 in 10.0 mi Calm Calm - N/A   Overcast
1:00 PM 57.2 °F 48.2 °F 72% 30.06 in 10.0 mi Variable 3.5 mph - N/A   Overcast
1:25 PM 59.0 °F 48.2 °F 67% 30.05 in 10.0 mi NE 3.5 mph - 0.00 in Rain Light Rain
1:32 PM 59.0 °F 48.2 °F 67% 30.05 in 10.0 mi Calm Calm - 0.00 in   Overcast
1:51 PM 60.8 °F 48.2 °F 63% 30.05 in 10.0 mi Calm Calm - 0.00 in   Overcast
1:53 PM 60.1 °F 48.9 °F 67% 30.04 in 10.0 mi Variable 3.5 mph - 0.00 in   Overcast
2:53 PM 59.0 °F 48.0 °F 67% 30.03 in 10.0 mi SSW 5.8 mph - N/A   Overcast
3:53 PM 61.0 °F 48.0 °F 62% 30.02 in 10.0 mi SSE 3.5 mph - N/A   Scattered Clouds
4:53 PM 60.1 °F 48.0 °F 64% 30.02 in 10.0 mi South 3.5 mph - N/A   Clear
5:53 PM 55.0 °F 48.0 °F 77% 30.03 in 10.0 mi West 3.5 mph - N/A   Clear
6:51 PM 53.6 °F 48.2 °F 82% 30.05 in 10.0 mi Calm Calm - N/A   Partly Cloudy
6:53 PM 54.0 °F 48.0 °F 80% 30.05 in 10.0 mi Variable 3.5 mph - N/A   Partly Cloudy
7:53 PM 50.0 °F 45.0 °F 83% 30.06 in 10.0 mi SW 3.5 mph - N/A   Partly Cloudy
8:44 PM 51.8 °F 46.4 °F 82% 30.08 in 10.0 mi West 3.5 mph - N/A   Mostly Cloudy
8:53 PM 52.0 °F 46.0 °F 80% 30.08 in 10.0 mi Calm Calm - N/A   Overcast
9:53 PM 53.1 °F 46.9 °F 80% 30.08 in 10.0 mi North 3.5 mph - N/A   Overcast
10:53 PM 52.0 °F 46.0 °F 80% 30.09 in 9.0 mi Calm Calm - N/A   Overcast
11:01 PM 53.6 °F 46.4 °F 77% 30.09 in 8.0 mi Calm Calm - N/A   Overcast
11:53 PM 51.1 °F 45.0 °F 80% 30.08 in 10.0 mi Calm Calm - N/A   Overcast